Year,Month,Day,Hour,Minute,Value (Times are PST for temperature in C)
2007,09,28,00,00,8.60
2007,09,28,00,01,8.60
2007,09,28,00,02,8.60
2007,09,28,00,03,8.60
2007,09,28,00,04,8.60
2007,09,28,00,05,8.60
2007,09,28,00,06,8.60
2007,09,28,00,07,8.60
2007,09,28,00,08,8.70
2007,09,28,00,09,8.70
2007,09,28,00,10,8.70
2007,09,28,00,11,8.70
2007,09,28,00,12,8.70
2007,09,28,00,13,8.70
2007,09,28,00,14,8.70
2007,09,28,00,15,8.70
2007,09,28,00,16,8.70
2007,09,28,00,17,8.80
2007,09,28,00,18,8.80
2007,09,28,00,19,8.80
2007,09,28,00,20,8.80
2007,09,28,00,21,8.80
2007,09,28,00,22,8.80
2007,09,28,00,23,8.90
2007,09,28,00,24,8.90
2007,09,28,00,25,8.90
2007,09,28,00,26,8.90
2007,09,28,00,27,8.90
2007,09,28,00,28,8.90
2007,09,28,00,29,8.90
2007,09,28,00,30,8.90
2007,09,28,00,31,8.90
2007,09,28,00,32,8.90
2007,09,28,00,33,8.90
2007,09,28,00,34,8.80
2007,09,28,00,35,8.80
2007,09,28,00,36,8.80
2007,09,28,00,37,8.80
2007,09,28,00,38,8.80
2007,09,28,00,39,8.80
2007,09,28,00,40,8.80
2007,09,28,00,41,8.80
2007,09,28,00,42,8.80
2007,09,28,00,43,8.80
2007,09,28,00,44,8.80
2007,09,28,00,45,8.80
2007,09,28,00,46,8.80
2007,09,28,00,47,8.80
2007,09,28,00,48,8.80
2007,09,28,00,49,8.80
2007,09,28,00,50,8.80
2007,09,28,00,51,8.80
2007,09,28,00,52,8.80
2007,09,28,00,53,8.90
2007,09,28,00,54,8.90
2007,09,28,00,55,8.90
2007,09,28,00,56,8.90
2007,09,28,00,57,8.90
2007,09,28,00,58,8.90
2007,09,28,00,59,8.90
2007,09,28,01,00,8.90
2007,09,28,01,01,8.90
2007,09,28,01,02,9.00
2007,09,28,01,03,9.00
2007,09,28,01,04,9.10
2007,09,28,01,05,9.10
2007,09,28,01,06,9.10
2007,09,28,01,07,9.10
2007,09,28,01,08,9.10
2007,09,28,01,09,9.10
2007,09,28,01,10,9.10
2007,09,28,01,11,9.10
2007,09,28,01,12,9.10
2007,09,28,01,13,9.10
2007,09,28,01,14,9.10
2007,09,28,01,15,9.10
2007,09,28,01,16,9.10
2007,09,28,01,17,9.10
2007,09,28,01,18,9.10
2007,09,28,01,19,9.10
2007,09,28,01,20,9.00
2007,09,28,01,21,9.00
2007,09,28,01,22,9.00
2007,09,28,01,23,9.00
2007,09,28,01,24,9.00
2007,09,28,01,25,9.00
2007,09,28,01,26,9.00
2007,09,28,01,27,9.00
2007,09,28,01,28,9.00
2007,09,28,01,29,9.00
2007,09,28,01,30,9.00
2007,09,28,01,31,9.00
2007,09,28,01,32,9.00
2007,09,28,01,33,9.00
2007,09,28,01,34,9.00
2007,09,28,01,35,9.00
2007,09,28,01,36,9.00
2007,09,28,01,37,9.00
2007,09,28,01,38,9.00
2007,09,28,01,39,9.00
2007,09,28,01,40,9.00
2007,09,28,01,41,9.00
2007,09,28,01,42,9.00
2007,09,28,01,43,9.00
2007,09,28,01,44,9.00
2007,09,28,01,45,9.00
2007,09,28,01,46,9.00
2007,09,28,01,47,9.00
2007,09,28,01,48,9.10
2007,09,28,01,49,9.10
2007,09,28,01,50,9.10
2007,09,28,01,51,9.10
2007,09,28,01,52,9.20
2007,09,28,01,53,9.20
2007,09,28,01,54,9.10
2007,09,28,01,55,9.10
2007,09,28,01,56,9.10
2007,09,28,01,57,9.10
2007,09,28,01,58,9.10
2007,09,28,01,59,9.10
2007,09,28,02,00,9.10
2007,09,28,02,01,9.00
2007,09,28,02,02,9.00
2007,09,28,02,03,9.00
2007,09,28,02,04,9.00
2007,09,28,02,05,9.00
2007,09,28,02,06,8.90
2007,09,28,02,07,8.90
2007,09,28,02,08,8.90
2007,09,28,02,09,8.90
2007,09,28,02,10,8.90
2007,09,28,02,11,8.80
2007,09,28,02,12,8.80
2007,09,28,02,13,8.80
2007,09,28,02,14,8.80
2007,09,28,02,15,8.80
2007,09,28,02,16,8.80
2007,09,28,02,17,8.80
2007,09,28,02,18,8.80
2007,09,28,02,19,8.80
2007,09,28,02,20,8.70
2007,09,28,02,21,8.70
2007,09,28,02,22,8.70
2007,09,28,02,23,8.70
2007,09,28,02,24,8.70
2007,09,28,02,25,8.70
2007,09,28,02,26,8.70
2007,09,28,02,27,8.60
2007,09,28,02,28,8.60
2007,09,28,02,29,8.60
2007,09,28,02,30,8.60
2007,09,28,02,31,8.50
2007,09,28,02,32,8.50
2007,09,28,02,33,8.50
2007,09,28,02,34,8.40
2007,09,28,02,35,8.40
2007,09,28,02,36,8.40
2007,09,28,02,37,8.40
2007,09,28,02,38,8.30
2007,09,28,02,39,8.30
2007,09,28,02,40,8.30
2007,09,28,02,41,8.30
2007,09,28,02,42,8.20
2007,09,28,02,43,8.20
2007,09,28,02,44,8.20
2007,09,28,02,45,8.20
2007,09,28,02,46,8.20
2007,09,28,02,47,8.20
2007,09,28,02,48,8.20
2007,09,28,02,49,8.20
2007,09,28,02,50,8.20
2007,09,28,02,51,8.30
2007,09,28,02,52,8.40
2007,09,28,02,53,8.40
2007,09,28,02,54,8.40
2007,09,28,02,55,8.50
2007,09,28,02,56,8.50
2007,09,28,02,57,8.50
2007,09,28,02,58,8.50
2007,09,28,02,59,8.50
2007,09,28,03,00,8.60
2007,09,28,03,01,8.60
2007,09,28,03,02,8.60
2007,09,28,03,03,8.60
2007,09,28,03,04,8.60
2007,09,28,03,05,8.60
2007,09,28,03,06,8.60
2007,09,28,03,07,8.60
2007,09,28,03,08,8.60
2007,09,28,03,09,8.50
2007,09,28,03,10,8.50
2007,09,28,03,11,8.50
2007,09,28,03,12,8.50
2007,09,28,03,13,8.40
2007,09,28,03,14,8.40
2007,09,28,03,15,8.40
2007,09,28,03,16,8.40
2007,09,28,03,17,8.30
2007,09,28,03,18,8.30
2007,09,28,03,19,8.30
2007,09,28,03,20,8.20
2007,09,28,03,21,8.20
2007,09,28,03,22,8.20
2007,09,28,03,23,8.20
2007,09,28,03,24,8.20
2007,09,28,03,25,8.20
2007,09,28,03,26,8.20
2007,09,28,03,27,8.20
2007,09,28,03,28,8.20
2007,09,28,03,29,8.20
2007,09,28,03,30,8.10
2007,09,28,03,31,8.10
2007,09,28,03,32,8.10
2007,09,28,03,33,8.10
2007,09,28,03,34,8.10
2007,09,28,03,35,8.00
2007,09,28,03,36,8.00
2007,09,28,03,37,8.00
2007,09,28,03,38,8.00
2007,09,28,03,39,8.00
2007,09,28,03,40,8.00
2007,09,28,03,41,7.90
2007,09,28,03,42,7.90
2007,09,28,03,43,7.90
2007,09,28,03,44,7.90
2007,09,28,03,45,7.90
2007,09,28,03,46,7.90
2007,09,28,03,47,7.90
2007,09,28,03,48,7.90
2007,09,28,03,49,7.90
2007,09,28,03,50,7.90
2007,09,28,03,51,7.90
2007,09,28,03,52,7.80
2007,09,28,03,53,7.80
2007,09,28,03,54,7.80
2007,09,28,03,55,7.80
2007,09,28,03,56,7.80
2007,09,28,03,57,7.80
2007,09,28,03,58,7.80
2007,09,28,03,59,7.80
2007,09,28,04,00,7.80
2007,09,28,04,01,7.80
2007,09,28,04,02,7.80
2007,09,28,04,03,7.80
2007,09,28,04,04,7.80
2007,09,28,04,05,7.80
2007,09,28,04,06,7.80
2007,09,28,04,07,7.80
2007,09,28,04,08,7.80
2007,09,28,04,09,7.90
2007,09,28,04,10,7.90
2007,09,28,04,11,7.90
2007,09,28,04,12,7.90
2007,09,28,04,13,7.90
2007,09,28,04,14,7.90
2007,09,28,04,15,7.80
2007,09,28,04,16,7.90
2007,09,28,04,17,7.90
2007,09,28,04,18,7.90
2007,09,28,04,19,7.80
2007,09,28,04,20,7.90
2007,09,28,04,21,7.90
2007,09,28,04,22,7.90
2007,09,28,04,23,7.80
2007,09,28,04,24,7.80
2007,09,28,04,25,7.80
2007,09,28,04,26,7.80
2007,09,28,04,27,7.80
2007,09,28,04,28,7.80
2007,09,28,04,29,7.80
2007,09,28,04,30,7.80
2007,09,28,04,31,7.80
2007,09,28,04,32,7.70
2007,09,28,04,33,7.70
2007,09,28,04,34,7.70
2007,09,28,04,35,7.70
2007,09,28,04,36,7.70
2007,09,28,04,37,7.60
2007,09,28,04,38,7.60
2007,09,28,04,39,7.60
2007,09,28,04,40,7.50
2007,09,28,04,41,7.50
2007,09,28,04,42,7.50
2007,09,28,04,43,7.50
2007,09,28,04,44,7.50
2007,09,28,04,45,7.50
2007,09,28,04,46,7.50
2007,09,28,04,47,7.50
2007,09,28,04,48,7.50
2007,09,28,04,49,7.40
2007,09,28,04,50,7.40
2007,09,28,04,51,7.50
2007,09,28,04,52,7.50
2007,09,28,04,53,7.50
2007,09,28,04,54,7.50
2007,09,28,04,55,7.50
2007,09,28,04,56,7.50
2007,09,28,04,57,7.50
2007,09,28,04,58,7.50
2007,09,28,04,59,7.50
2007,09,28,05,00,7.40
2007,09,28,05,01,7.40
2007,09,28,05,02,7.40
2007,09,28,05,03,7.40
2007,09,28,05,04,7.30
2007,09,28,05,05,7.30
2007,09,28,05,06,7.30
2007,09,28,05,07,7.30
2007,09,28,05,08,7.30
2007,09,28,05,09,7.30
2007,09,28,05,10,7.30
2007,09,28,05,11,7.30
2007,09,28,05,12,7.30
2007,09,28,05,13,7.30
2007,09,28,05,14,7.20
2007,09,28,05,15,7.20
2007,09,28,05,16,7.20
2007,09,28,05,17,7.20
2007,09,28,05,18,7.20
2007,09,28,05,19,7.20
2007,09,28,05,20,7.20
2007,09,28,05,21,7.20
2007,09,28,05,22,7.20
2007,09,28,05,23,7.20
2007,09,28,05,24,7.20
2007,09,28,05,25,7.20
2007,09,28,05,26,7.20
2007,09,28,05,27,7.30
2007,09,28,05,28,7.30
2007,09,28,05,29,7.30
2007,09,28,05,30,7.30
2007,09,28,05,31,7.30
2007,09,28,05,32,7.30
2007,09,28,05,33,7.30
2007,09,28,05,34,7.20
2007,09,28,05,35,7.20
2007,09,28,05,36,7.20
2007,09,28,05,37,7.20
2007,09,28,05,38,7.20
2007,09,28,05,39,7.10
2007,09,28,05,40,7.10
2007,09,28,05,41,7.10
2007,09,28,05,42,7.00
2007,09,28,05,43,7.00
2007,09,28,05,44,7.00
2007,09,28,05,45,6.90
2007,09,28,05,46,6.90
2007,09,28,05,47,6.90
2007,09,28,05,48,6.80
2007,09,28,05,49,6.80
2007,09,28,05,50,6.80
2007,09,28,05,51,6.80
2007,09,28,05,52,6.70
2007,09,28,05,53,6.70
2007,09,28,05,54,6.70
2007,09,28,05,55,6.60
2007,09,28,05,56,6.60
2007,09,28,05,57,6.60
2007,09,28,05,58,6.50
2007,09,28,05,59,6.40
2007,09,28,06,00,6.40
2007,09,28,06,01,6.40
2007,09,28,06,02,6.30
2007,09,28,06,03,6.30
2007,09,28,06,04,6.20
2007,09,28,06,05,6.20
2007,09,28,06,06,6.20
2007,09,28,06,07,6.10
2007,09,28,06,08,6.10
2007,09,28,06,09,6.10
2007,09,28,06,10,6.00
2007,09,28,06,11,6.00
2007,09,28,06,12,5.90
2007,09,28,06,13,5.90
2007,09,28,06,14,5.90
2007,09,28,06,15,5.80
2007,09,28,06,16,5.80
2007,09,28,06,17,5.70
2007,09,28,06,18,5.70
2007,09,28,06,19,5.70
2007,09,28,06,20,5.70
2007,09,28,06,21,5.70
2007,09,28,06,22,5.60
2007,09,28,06,23,5.60
2007,09,28,06,24,5.60
2007,09,28,06,25,5.60
2007,09,28,06,26,5.60
2007,09,28,06,27,5.50
2007,09,28,06,28,5.50
2007,09,28,06,29,5.50
2007,09,28,06,30,5.50
2007,09,28,06,31,5.40
2007,09,28,06,32,5.40
2007,09,28,06,33,5.40
2007,09,28,06,34,5.40
2007,09,28,06,35,5.30
2007,09,28,06,36,5.30
2007,09,28,06,37,5.30
2007,09,28,06,38,5.30
2007,09,28,06,39,5.30
2007,09,28,06,40,5.30
2007,09,28,06,41,5.30
2007,09,28,06,42,5.30
2007,09,28,06,43,5.30
2007,09,28,06,44,5.20
2007,09,28,06,45,5.20
2007,09,28,06,46,5.20
2007,09,28,06,47,5.20
2007,09,28,06,48,5.20
2007,09,28,06,49,5.10
2007,09,28,06,50,5.10
2007,09,28,06,51,5.10
2007,09,28,06,52,5.10
2007,09,28,06,53,5.10
2007,09,28,06,54,5.10
2007,09,28,06,55,5.10
2007,09,28,06,56,5.10
2007,09,28,06,57,5.10
2007,09,28,06,58,5.10
2007,09,28,06,59,5.10
2007,09,28,07,00,5.10
2007,09,28,07,01,5.10
2007,09,28,07,02,5.10
2007,09,28,07,03,5.00
2007,09,28,07,04,4.90
2007,09,28,07,05,4.90
2007,09,28,07,06,4.90
2007,09,28,07,07,4.90
2007,09,28,07,08,4.90
2007,09,28,07,09,4.90
2007,09,28,07,10,4.90
2007,09,28,07,11,4.90
2007,09,28,07,12,4.90
2007,09,28,07,13,4.90
2007,09,28,07,14,4.90
2007,09,28,07,15,4.90
2007,09,28,07,16,4.90
2007,09,28,07,17,4.90
2007,09,28,07,18,4.90
2007,09,28,07,19,4.90
2007,09,28,07,20,4.90
2007,09,28,07,21,4.80
2007,09,28,07,22,4.80
2007,09,28,07,23,4.80
2007,09,28,07,24,4.80
2007,09,28,07,25,4.70
2007,09,28,07,26,4.70
2007,09,28,07,27,4.70
2007,09,28,07,28,4.70
2007,09,28,07,29,4.60
2007,09,28,07,30,4.60
2007,09,28,07,31,4.60
2007,09,28,07,32,4.60
2007,09,28,07,33,4.60
2007,09,28,07,34,4.60
2007,09,28,07,35,4.60
2007,09,28,07,36,4.60
2007,09,28,07,37,4.60
2007,09,28,07,38,4.60
2007,09,28,07,39,4.60
2007,09,28,07,40,4.60
2007,09,28,07,41,4.60
2007,09,28,07,42,4.60
2007,09,28,07,43,4.60
2007,09,28,07,44,4.60
2007,09,28,07,45,4.70
2007,09,28,07,46,4.70
2007,09,28,07,47,4.70
2007,09,28,07,48,4.70
2007,09,28,07,49,4.70
2007,09,28,07,50,4.80
2007,09,28,07,51,4.70
2007,09,28,07,52,4.70
2007,09,28,07,53,4.70
2007,09,28,07,54,4.70
2007,09,28,07,55,4.70
2007,09,28,07,56,4.70
2007,09,28,07,57,4.70
2007,09,28,07,58,4.70
2007,09,28,07,59,4.70
2007,09,28,08,00,4.70
2007,09,28,08,01,4.70
2007,09,28,08,02,4.70
2007,09,28,08,03,4.70
2007,09,28,08,04,4.70
2007,09,28,08,05,4.70
2007,09,28,08,06,4.70
2007,09,28,08,07,4.70
2007,09,28,08,08,4.80
2007,09,28,08,09,4.80
2007,09,28,08,10,4.80
2007,09,28,08,11,4.80
2007,09,28,08,12,4.80
2007,09,28,08,13,4.90
2007,09,28,08,14,4.90
2007,09,28,08,15,4.90
2007,09,28,08,16,4.90
2007,09,28,08,17,4.90
2007,09,28,08,18,4.90
2007,09,28,08,19,4.90
2007,09,28,08,20,5.00
2007,09,28,08,21,5.10
2007,09,28,08,22,5.10
2007,09,28,08,23,5.10
2007,09,28,08,24,5.10
2007,09,28,08,25,5.10
2007,09,28,08,26,5.20
2007,09,28,08,27,5.30
2007,09,28,08,28,5.30
2007,09,28,08,29,5.30
2007,09,28,08,30,5.30
2007,09,28,08,31,5.30
2007,09,28,08,32,5.30
2007,09,28,08,33,5.30
2007,09,28,08,34,5.40
2007,09,28,08,35,5.40
2007,09,28,08,36,5.50
2007,09,28,08,37,5.60
2007,09,28,08,38,5.60
2007,09,28,08,39,5.70
2007,09,28,08,40,5.70
2007,09,28,08,41,5.70
2007,09,28,08,42,5.80
2007,09,28,08,43,5.80
2007,09,28,08,44,5.90
2007,09,28,08,45,5.90
2007,09,28,08,46,5.90
2007,09,28,08,47,6.00
2007,09,28,08,48,6.10
2007,09,28,08,49,6.20
2007,09,28,08,50,6.20
2007,09,28,08,51,6.30
2007,09,28,08,52,6.40
2007,09,28,08,53,6.40
2007,09,28,08,54,6.60
2007,09,28,08,55,6.70
2007,09,28,08,56,6.80
2007,09,28,08,57,6.90
2007,09,28,08,58,7.00
2007,09,28,08,59,7.10
2007,09,28,09,00,7.20
2007,09,28,09,01,7.30
2007,09,28,09,02,7.40
2007,09,28,09,03,7.50
2007,09,28,09,04,7.60
2007,09,28,09,05,7.70
2007,09,28,09,06,7.80
2007,09,28,09,07,7.90
2007,09,28,09,08,8.00
2007,09,28,09,09,8.20
2007,09,28,09,10,8.30
2007,09,28,09,11,8.40
2007,09,28,09,12,8.50
2007,09,28,09,13,8.50
2007,09,28,09,14,8.60
2007,09,28,09,15,8.70
2007,09,28,09,16,8.70
2007,09,28,09,17,8.70
2007,09,28,09,18,8.80
2007,09,28,09,19,8.90
2007,09,28,09,20,8.90
2007,09,28,09,21,9.00
2007,09,28,09,22,9.00
2007,09,28,09,23,9.10
2007,09,28,09,24,9.20
2007,09,28,09,25,9.20
2007,09,28,09,26,9.30
2007,09,28,09,27,9.40
2007,09,28,09,28,9.50
2007,09,28,09,29,9.50
2007,09,28,09,30,9.60
2007,09,28,09,31,9.60
2007,09,28,09,32,9.70
2007,09,28,09,33,9.70
2007,09,28,09,34,9.70
2007,09,28,09,35,9.70
2007,09,28,09,36,9.80
2007,09,28,09,37,9.80
2007,09,28,09,38,9.90
2007,09,28,09,39,9.90
2007,09,28,09,40,9.90
2007,09,28,09,41,9.90
2007,09,28,09,42,10.10
2007,09,28,09,43,10.10
2007,09,28,09,44,10.10
2007,09,28,09,45,10.10
2007,09,28,09,46,10.20
2007,09,28,09,47,10.20
2007,09,28,09,48,10.20
2007,09,28,09,49,10.30
2007,09,28,09,50,10.30
2007,09,28,09,51,10.30
2007,09,28,09,52,10.30
2007,09,28,09,53,10.30
2007,09,28,09,54,10.30
2007,09,28,09,55,10.40
2007,09,28,09,56,10.40
2007,09,28,09,57,10.40
2007,09,28,09,58,10.40
2007,09,28,09,59,10.40
2007,09,28,10,00,10.40
2007,09,28,10,01,10.40
2007,09,28,10,02,10.50
2007,09,28,10,03,10.60
2007,09,28,10,04,10.60
2007,09,28,10,05,10.60
2007,09,28,10,06,10.60
2007,09,28,10,07,10.60
2007,09,28,10,08,10.60
2007,09,28,10,09,10.70
2007,09,28,10,10,10.70
2007,09,28,10,11,10.70
2007,09,28,10,12,10.80
2007,09,28,10,13,10.80
2007,09,28,10,14,10.90
2007,09,28,10,15,10.90
2007,09,28,10,16,10.90
2007,09,28,10,17,10.90
2007,09,28,10,18,10.90
2007,09,28,10,19,10.90
2007,09,28,10,20,10.90
2007,09,28,10,21,10.90
2007,09,28,10,22,10.90
2007,09,28,10,23,10.90
2007,09,28,10,24,10.90
2007,09,28,10,25,11.00
2007,09,28,10,26,11.10
2007,09,28,10,27,11.10
2007,09,28,10,28,11.10
2007,09,28,10,29,11.20
2007,09,28,10,30,11.30
2007,09,28,10,31,11.40
2007,09,28,10,32,11.40
2007,09,28,10,33,11.40
2007,09,28,10,34,11.40
2007,09,28,10,35,11.40
2007,09,28,10,36,11.50
2007,09,28,10,37,11.60
2007,09,28,10,38,11.60
2007,09,28,10,39,11.60
2007,09,28,10,40,11.60
2007,09,28,10,41,11.60
2007,09,28,10,42,11.60
2007,09,28,10,43,11.70
2007,09,28,10,44,11.70
2007,09,28,10,45,11.70
2007,09,28,10,46,11.80
2007,09,28,10,47,11.80
2007,09,28,10,48,11.70
2007,09,28,10,49,11.70
2007,09,28,10,50,11.60
2007,09,28,10,51,11.60
2007,09,28,10,52,11.60
2007,09,28,10,53,11.60
2007,09,28,10,54,11.60
2007,09,28,10,55,11.60
2007,09,28,10,56,11.60
2007,09,28,10,57,11.60
2007,09,28,10,58,11.60
2007,09,28,10,59,11.60
2007,09,28,11,00,11.60
2007,09,28,11,01,11.60
2007,09,28,11,02,11.60
2007,09,28,11,03,11.60
2007,09,28,11,04,11.60
2007,09,28,11,05,11.60
2007,09,28,11,06,11.60
2007,09,28,11,07,11.60
2007,09,28,11,08,11.60
2007,09,28,11,09,11.60
2007,09,28,11,10,11.60
2007,09,28,11,11,11.60
2007,09,28,11,12,11.70
2007,09,28,11,13,11.70
2007,09,28,11,14,11.80
2007,09,28,11,15,11.80
2007,09,28,11,16,11.80
2007,09,28,11,17,11.80
2007,09,28,11,18,11.80
2007,09,28,11,19,11.80
2007,09,28,11,20,11.80
2007,09,28,11,21,11.80
2007,09,28,11,22,11.80
2007,09,28,11,23,11.90
2007,09,28,11,24,12.00
2007,09,28,11,25,12.00
2007,09,28,11,26,12.00
2007,09,28,11,27,12.00
2007,09,28,11,28,12.10
2007,09,28,11,29,12.10
2007,09,28,11,30,12.10
2007,09,28,11,31,12.10
2007,09,28,11,32,12.10
2007,09,28,11,33,12.00
2007,09,28,11,34,12.10
2007,09,28,11,35,12.00
2007,09,28,11,36,12.00
2007,09,28,11,37,12.00
2007,09,28,11,38,12.10
2007,09,28,11,39,12.10
2007,09,28,11,40,12.10
2007,09,28,11,41,12.10
2007,09,28,11,42,12.10
2007,09,28,11,43,12.10
2007,09,28,11,44,12.10
2007,09,28,11,45,12.10
2007,09,28,11,46,12.10
2007,09,28,11,47,12.10
2007,09,28,11,48,12.00
2007,09,28,11,49,12.00
2007,09,28,11,50,12.00
2007,09,28,11,51,11.90
2007,09,28,11,52,11.90
2007,09,28,11,53,11.90
2007,09,28,11,54,11.90
2007,09,28,11,55,11.80
2007,09,28,11,56,11.80
2007,09,28,11,57,11.90
2007,09,28,11,58,11.90
2007,09,28,11,59,12.00
2007,09,28,12,00,12.00
2007,09,28,12,01,12.00
2007,09,28,12,02,12.00
2007,09,28,12,03,12.00
2007,09,28,12,04,12.00
2007,09,28,12,05,12.10
2007,09,28,12,06,12.20
2007,09,28,12,07,12.20
2007,09,28,12,08,12.20
2007,09,28,12,09,12.20
2007,09,28,12,10,12.20
2007,09,28,12,11,12.20
2007,09,28,12,12,12.20
2007,09,28,12,13,12.20
2007,09,28,12,14,12.30
2007,09,28,12,15,12.30
2007,09,28,12,16,12.40
2007,09,28,12,17,12.50
2007,09,28,12,18,12.50
2007,09,28,12,19,12.50
2007,09,28,12,20,12.50
2007,09,28,12,21,12.40
2007,09,28,12,22,12.30
2007,09,28,12,23,12.30
2007,09,28,12,24,12.30
2007,09,28,12,25,12.30
2007,09,28,12,26,12.30
2007,09,28,12,27,12.30
2007,09,28,12,28,12.40
2007,09,28,12,29,12.40
2007,09,28,12,30,12.50
2007,09,28,12,31,12.50
2007,09,28,12,32,12.60
2007,09,28,12,33,12.60
2007,09,28,12,34,12.60
2007,09,28,12,35,12.60
2007,09,28,12,36,12.60
2007,09,28,12,37,12.60
2007,09,28,12,38,12.60
2007,09,28,12,39,12.60
2007,09,28,12,40,12.70
2007,09,28,12,41,12.70
2007,09,28,12,42,12.70
2007,09,28,12,43,12.80
2007,09,28,12,44,12.80
2007,09,28,12,45,12.80
2007,09,28,12,46,12.80
2007,09,28,12,47,12.90
2007,09,28,12,48,12.90
2007,09,28,12,49,12.80
2007,09,28,12,50,12.80
2007,09,28,12,51,12.90
2007,09,28,12,52,12.90
2007,09,28,12,53,12.90
2007,09,28,12,54,12.90
2007,09,28,12,55,12.90
2007,09,28,12,56,12.80
2007,09,28,12,57,12.80
2007,09,28,12,58,12.80
2007,09,28,12,59,12.70
2007,09,28,13,00,12.70
2007,09,28,13,01,12.70
2007,09,28,13,02,12.70
2007,09,28,13,03,12.70
2007,09,28,13,04,12.60
2007,09,28,13,05,12.60
2007,09,28,13,06,12.60
2007,09,28,13,07,12.60
2007,09,28,13,08,12.50
2007,09,28,13,09,12.50
2007,09,28,13,10,12.60
2007,09,28,13,11,12.60
2007,09,28,13,12,12.60
2007,09,28,13,13,12.60
2007,09,28,13,14,12.60
2007,09,28,13,15,12.70
2007,09,28,13,16,12.70
2007,09,28,13,17,12.80
2007,09,28,13,18,12.80
2007,09,28,13,19,12.80
2007,09,28,13,20,12.80
2007,09,28,13,21,12.90
2007,09,28,13,22,12.90
2007,09,28,13,23,13.00
2007,09,28,13,24,13.00
2007,09,28,13,25,13.00
2007,09,28,13,26,13.00
2007,09,28,13,27,13.10
2007,09,28,13,28,13.10
2007,09,28,13,29,13.10
2007,09,28,13,30,13.10
2007,09,28,13,31,13.10
2007,09,28,13,32,13.10
2007,09,28,13,33,13.20
2007,09,28,13,34,13.20
2007,09,28,13,35,13.20
2007,09,28,13,36,13.20
2007,09,28,13,37,13.30
2007,09,28,13,38,13.30
2007,09,28,13,39,13.30
2007,09,28,13,40,13.40
2007,09,28,13,41,13.40
2007,09,28,13,42,13.40
2007,09,28,13,43,13.40
2007,09,28,13,44,13.40
2007,09,28,13,45,13.40
2007,09,28,13,46,13.50
2007,09,28,13,47,13.50
2007,09,28,13,48,13.50
2007,09,28,13,49,13.50
2007,09,28,13,50,13.50
2007,09,28,13,51,13.50
2007,09,28,13,52,13.40
2007,09,28,13,53,13.40
2007,09,28,13,54,13.50
2007,09,28,13,55,13.50
2007,09,28,13,56,13.50
2007,09,28,13,57,13.40
2007,09,28,13,58,13.30
2007,09,28,13,59,13.30
2007,09,28,14,00,13.30
2007,09,28,14,01,13.20
2007,09,28,14,02,13.10
2007,09,28,14,03,13.10
2007,09,28,14,04,13.10
2007,09,28,14,05,13.10
2007,09,28,14,06,13.20
2007,09,28,14,07,13.20
2007,09,28,14,08,13.20
2007,09,28,14,09,13.20
2007,09,28,14,10,13.20
2007,09,28,14,11,13.20
2007,09,28,14,12,13.30
2007,09,28,14,13,13.30
2007,09,28,14,14,13.30
2007,09,28,14,15,13.30
2007,09,28,14,16,13.40
2007,09,28,14,17,13.40
2007,09,28,14,18,13.40
2007,09,28,14,19,13.50
2007,09,28,14,20,13.50
2007,09,28,14,21,13.50
2007,09,28,14,22,13.60
2007,09,28,14,23,13.60
2007,09,28,14,24,13.60
2007,09,28,14,25,13.70
2007,09,28,14,26,13.70
2007,09,28,14,27,13.70
2007,09,28,14,28,13.70
2007,09,28,14,29,13.70
2007,09,28,14,30,13.80
2007,09,28,14,31,13.80
2007,09,28,14,32,13.90
2007,09,28,14,33,13.90
2007,09,28,14,34,13.90
2007,09,28,14,35,13.90
2007,09,28,14,36,13.90
2007,09,28,14,37,13.90
2007,09,28,14,38,13.90
2007,09,28,14,39,13.80
2007,09,28,14,40,13.80
2007,09,28,14,41,13.80
2007,09,28,14,42,13.80
2007,09,28,14,43,13.70
2007,09,28,14,44,13.60
2007,09,28,14,45,13.60
2007,09,28,14,46,13.60
2007,09,28,14,47,13.60
2007,09,28,14,48,13.60
2007,09,28,14,49,13.60
2007,09,28,14,50,13.60
2007,09,28,14,51,13.60
2007,09,28,14,52,13.70
2007,09,28,14,53,13.60
2007,09,28,14,54,13.70
2007,09,28,14,55,13.70
2007,09,28,14,56,13.70
2007,09,28,14,57,13.70
2007,09,28,14,58,13.70
2007,09,28,14,59,13.70
2007,09,28,15,00,13.70
2007,09,28,15,01,13.80
2007,09,28,15,02,13.80
2007,09,28,15,03,13.90
2007,09,28,15,04,13.80
2007,09,28,15,05,13.90
2007,09,28,15,06,14.00
2007,09,28,15,07,14.10
2007,09,28,15,08,14.10
2007,09,28,15,09,14.10
2007,09,28,15,10,14.00
2007,09,28,15,11,13.90
2007,09,28,15,12,13.80
2007,09,28,15,13,13.80
2007,09,28,15,14,13.80
2007,09,28,15,15,13.80
2007,09,28,15,16,13.80
2007,09,28,15,17,13.90
2007,09,28,15,18,13.90
2007,09,28,15,19,13.80
2007,09,28,15,20,13.80
2007,09,28,15,21,13.80
2007,09,28,15,22,13.80
2007,09,28,15,23,13.80
2007,09,28,15,24,13.70
2007,09,28,15,25,13.70
2007,09,28,15,26,13.80
2007,09,28,15,27,13.80
2007,09,28,15,28,13.90
2007,09,28,15,29,14.00
2007,09,28,15,30,14.00
2007,09,28,15,31,14.00
2007,09,28,15,32,14.10
2007,09,28,15,33,14.20
2007,09,28,15,34,14.10
2007,09,28,15,35,14.10
2007,09,28,15,36,14.10
2007,09,28,15,37,14.10
2007,09,28,15,38,14.10
2007,09,28,15,39,14.10
2007,09,28,15,40,14.10
2007,09,28,15,41,14.10
2007,09,28,15,42,14.10
2007,09,28,15,43,14.10
2007,09,28,15,44,14.10
2007,09,28,15,45,14.10
2007,09,28,15,46,14.20
2007,09,28,15,47,14.20
2007,09,28,15,48,14.10
2007,09,28,15,49,14.10
2007,09,28,15,50,14.10
2007,09,28,15,51,14.10
2007,09,28,15,52,14.10
2007,09,28,15,53,14.10
2007,09,28,15,54,14.10
2007,09,28,15,55,14.20
2007,09,28,15,56,14.20
2007,09,28,15,57,14.20
2007,09,28,15,58,14.20
2007,09,28,15,59,14.20
2007,09,28,16,00,14.20
2007,09,28,16,01,14.20
2007,09,28,16,02,14.20
2007,09,28,16,03,14.20
2007,09,28,16,04,14.30
2007,09,28,16,05,14.30
2007,09,28,16,06,14.30
2007,09,28,16,07,14.30
2007,09,28,16,08,14.40
2007,09,28,16,09,14.40
2007,09,28,16,10,14.50
2007,09,28,16,11,14.50
2007,09,28,16,12,14.40
2007,09,28,16,13,14.40
2007,09,28,16,14,14.40
2007,09,28,16,15,14.30
2007,09,28,16,16,14.20
2007,09,28,16,17,14.20
2007,09,28,16,18,14.30
2007,09,28,16,19,14.30
2007,09,28,16,20,14.30
2007,09,28,16,21,14.30
2007,09,28,16,22,14.30
2007,09,28,16,23,14.30
2007,09,28,16,24,14.30
2007,09,28,16,25,14.30
2007,09,28,16,26,14.30
2007,09,28,16,27,14.30
2007,09,28,16,28,14.30
2007,09,28,16,29,14.40
2007,09,28,16,30,14.40
2007,09,28,16,31,14.40
2007,09,28,16,32,14.40
2007,09,28,16,33,14.50
2007,09,28,16,34,14.50
2007,09,28,16,35,14.50
2007,09,28,16,36,14.50
2007,09,28,16,37,14.60
2007,09,28,16,38,14.60
2007,09,28,16,39,14.50
2007,09,28,16,40,14.50
2007,09,28,16,41,14.40
2007,09,28,16,42,14.30
2007,09,28,16,43,14.20
2007,09,28,16,44,14.20
2007,09,28,16,45,14.20
2007,09,28,16,46,14.20
2007,09,28,16,47,14.20
2007,09,28,16,48,14.20
2007,09,28,16,49,14.20
2007,09,28,16,50,14.20
2007,09,28,16,51,14.20
2007,09,28,16,52,14.20
2007,09,28,16,53,14.20
2007,09,28,16,54,14.20
2007,09,28,16,55,14.20
2007,09,28,16,56,14.20
2007,09,28,16,57,14.20
2007,09,28,16,58,14.20
2007,09,28,16,59,14.20
2007,09,28,17,00,14.10
2007,09,28,17,01,14.10
2007,09,28,17,02,14.10
2007,09,28,17,03,14.10
2007,09,28,17,04,14.10
2007,09,28,17,05,14.00
2007,09,28,17,06,14.00
2007,09,28,17,07,14.00
2007,09,28,17,08,14.10
2007,09,28,17,09,14.10
2007,09,28,17,10,14.10
2007,09,28,17,11,14.10
2007,09,28,17,12,14.10
2007,09,28,17,13,14.10
2007,09,28,17,14,14.10
2007,09,28,17,15,14.10
2007,09,28,17,16,14.20
2007,09,28,17,17,14.20
2007,09,28,17,18,14.10
2007,09,28,17,19,14.10
2007,09,28,17,20,14.00
2007,09,28,17,21,14.00
2007,09,28,17,22,14.00
2007,09,28,17,23,14.00
2007,09,28,17,24,14.00
2007,09,28,17,25,14.00
2007,09,28,17,26,14.10
2007,09,28,17,27,14.10
2007,09,28,17,28,14.10
2007,09,28,17,29,14.10
2007,09,28,17,30,14.10
2007,09,28,17,31,14.10
2007,09,28,17,32,14.10
2007,09,28,17,33,14.10
2007,09,28,17,34,14.10
2007,09,28,17,35,14.10
2007,09,28,17,36,14.00
2007,09,28,17,37,14.00
2007,09,28,17,38,14.00
2007,09,28,17,39,14.00
2007,09,28,17,40,14.00
2007,09,28,17,41,14.00
2007,09,28,17,42,13.90
2007,09,28,17,43,13.90
2007,09,28,17,44,13.90